Weather History for Camarillo, CA

Change the Weather History Date:

Saturday, September 28, 2013

  Actual Average Record
Temperature  
Mean Temperature 67 °F 65 °F  
Max Temperature 82 °F 76 °F 100 °F (2005)
Min Temperature 51 °F 55 °F 48 °F (1971)
Degree Days  
Heating Degree Days 0 1  
Month to date heating degree days 1 10  
Since 1 July heating degree days 4 25  
Cooling Degree Days 2 2  
Month to date cooling degree days 113 69  
Year to date cooling degree days 582 281  
Growing Degree Days 16 (Base 50)    
Moisture  
Dew Point 36 °F    
Average Humidity 38    
Maximum Humidity 59    
Minimum Humidity 16    
Precipitation  
Precipitation 0.00 in 0.01 in 0.55 in (1967)
Month to date precipitation 0.00 0.15  
Year to date precipitation 2.19 11.19  
Since 1 July precipitation 0.04 0.21  
Sea Level Pressure  
Sea Level Pressure 30.02 in    
Wind  
Wind Speed 4 mph (SW)    
Max Wind Speed 13 mph    
Max Gust Speed 16 mph    
Visibility 10 miles    
Events      
T = Trace of Precipitation, MM = Missing Value Source: NWS Daily Summary

Daily Weather History Graph

Daily Weather History Graph

Search for Another Location

Airport:

Trip Planner

Search our weather history database for the weather conditions in past years. The results will help you decide how hot, cold, wet, or windy it might be!

Date:

Astronomy

Sep. 28, 2013 Rise Set
Actual Time 6:48 AM PDT 6:44 PM PDT
Civil Twilight 6:23 AM PDT 7:09 PM PDT
Nautical Twilight 5:54 AM PDT 7:38 PM PDT
Astronomical Twilight 5:25 AM PDT 8:07 PM PDT
Moon 12:54 AM PDT (9/28) 2:53 PM PDT (9/28)
Length of Visible Light 12h 45m
Length of Day
11h 55m
Waning Crescent, 35% of the Moon is Illuminated
Sep 28
Waning Crescent
Oct 4
New
Oct 11
First Quarter
Oct 18
Full
Oct 26
Last Quarter

Hourly Weather History & Observations

Time (PDT) Temp. Dew Point Humidity Pressure Visibility Wind Dir Wind Speed Gust Speed Precip Events Conditions
12:55 AM 55.0 °F 34.0 °F 45% 30.00 in 10.0 mi Calm Calm - N/A   Clear
1:55 AM 55.9 °F 32.0 °F 40% 30.00 in 10.0 mi NNE 3.5 mph - N/A   Clear
2:55 AM 55.9 °F 34.0 °F 44% 30.00 in 10.0 mi Calm Calm - N/A   Clear
3:55 AM 52.0 °F 37.0 °F 57% 30.00 in 10.0 mi Calm Calm - N/A   Clear
4:55 AM 51.1 °F 33.1 °F 50% 30.01 in 10.0 mi Calm Calm - N/A   Clear
5:55 AM 53.1 °F 35.1 °F 50% 30.01 in 10.0 mi Calm Calm - N/A   Clear
6:55 AM 55.0 °F 32.0 °F 42% 30.01 in 10.0 mi Calm Calm - N/A   Clear
7:55 AM 63.0 °F 32.0 °F 31% 30.02 in 10.0 mi NE 3.5 mph - N/A   Clear
8:55 AM 75.0 °F 28.9 °F 18% 30.03 in 10.0 mi ENE 5.8 mph - N/A   Clear
9:55 AM 73.9 °F 33.1 °F 22% 30.04 in 10.0 mi WSW 6.9 mph - N/A   Clear
10:55 AM 78.1 °F 39.9 °F 25% 30.04 in 10.0 mi SW 8.1 mph - N/A   Clear
11:55 AM 78.1 °F 37.0 °F 23% 30.04 in 10.0 mi SW 10.4 mph - N/A   Clear
12:55 PM 79.0 °F 37.0 °F 22% 30.04 in 10.0 mi WSW 10.4 mph - N/A   Clear
1:55 PM 81.0 °F 36.0 °F 20% 30.02 in 10.0 mi WSW 9.2 mph - N/A   Clear
2:55 PM 81.0 °F 32.0 °F 17% 30.02 in 10.0 mi SW 9.2 mph - N/A   Clear
3:55 PM 81.0 °F 30.9 °F 16% 30.01 in 10.0 mi SW 8.1 mph - N/A   Clear
4:55 PM 81.0 °F 30.0 °F 16% 30.00 in 10.0 mi SW 6.9 mph - N/A   Clear
5:55 PM 75.0 °F 41.0 °F 29% 29.99 in 10.0 mi WSW 5.8 mph - N/A   Clear
6:55 PM 69.1 °F 45.0 °F 42% 30.01 in 10.0 mi SW 5.8 mph - N/A   Clear
7:55 PM 66.9 °F 44.1 °F 44% 30.03 in 10.0 mi Calm Calm - N/A   Clear
8:55 PM 64.9 °F 43.0 °F 45% 30.04 in 10.0 mi Calm Calm - N/A   Clear
9:55 PM 63.0 °F 42.1 °F 46% 30.05 in 10.0 mi ENE 4.6 mph - N/A   Clear
10:55 PM 61.0 °F 42.1 °F 50% 30.06 in 10.0 mi Calm Calm - N/A   Clear
11:55 PM 57.0 °F 43.0 °F 59% 30.05 in 10.0 mi Calm Calm - N/A   Clear